Location: Unspecified
(40.0803°N, 0.0000°E)
Time: 04:59:30
(UTC+00:00)

CZ-4 DEB - Visible Passes

Search period start: 04 April 2026 00:00
Search period end: 14 April 2026 00:00
Orbit: 683 x 826 km, 98.7° (Epoch: 18 March)

Date Brightness Start Highest point End Pass type
(mag) Time Alt. Az. Time Alt. Az. Time Alt. Az.
4 Apr ? 20:06:57 27° ENE 20:07:09 27° ENE 20:11:09 10° N visible
4 Apr ? 21:46:56 29° WNW 21:46:56 29° WNW 21:50:06 10° NW visible
5 Apr ? 19:26:34 11° ENE 19:27:45 12° ENE 19:29:19 10° NE visible
5 Apr ? 21:06:33 66° NNW 21:06:33 66° NNW 21:10:40 10° NNW visible
6 Apr ? 20:26:09 40° ENE 20:26:09 40° ENE 20:30:36 10° N visible
6 Apr ? 22:06:08 19° WNW 22:06:08 19° WNW 22:08:38 10° NW visible
7 Apr ? 19:45:46 16° ENE 19:46:38 17° ENE 19:49:42 10° NNE visible
7 Apr ? 21:25:45 47° WNW 21:25:45 47° WNW 21:29:40 10° NNW visible
8 Apr ? 20:45:22 61° ENE 20:45:22 61° ENE 20:49:52 10° N visible
8 Apr ? 22:25:20 13° WNW 22:25:20 13° WNW 22:26:36 10° WNW visible
9 Apr ? 20:04:58 25° E 20:05:33 25° ENE 20:09:25 10° NNE visible
9 Apr ? 21:44:57 31° WNW 21:44:57 31° WNW 21:48:28 10° NNW visible
10 Apr ? 19:25:11 10° ENE 19:26:10 11° ENE 19:27:10 10° NE visible
10 Apr ? 21:04:34 78° NW 21:04:34 78° NW 21:09:01 10° NNW visible
11 Apr ? 20:24:10 37° E 20:24:32 38° ENE 20:28:53 10° N visible
11 Apr ? 22:04:08 21° W 22:04:08 21° W 22:07:01 10° NW visible
12 Apr ? 19:43:45 15° E 19:45:01 16° ENE 19:47:52 10° NNE visible
12 Apr ? 21:23:44 53° W 21:23:44 53° W 21:27:59 10° NNW visible
13 Apr ? 20:43:20 57° E 20:43:33 58° ENE 20:48:09 10° N visible
13 Apr ? 22:23:18 13° W 22:23:18 13° W 22:25:01 10° WNW visible
